Погода в Жердевке

Погода в Жердевке : погода сейчас, прогноз погоды и архив. Всё, что Вы хотите узнать о погоде в Жердевке!

Хотите узнать прогноз погоды в Жердевке? Тогда Вам сюда: Погода в Жердевке

Поиск расширенной информации на нашем сайте:

Другие новости

Новости СМИ2

Главная страница сайта

Новости сайта

02.10.2013

Напоминаем, что на нашем новом сайте вы можете получить высокодетализированные прогнозы погоды по пунктам России, СНГ и мира (включающие важные для авиации метеовеличины, такие как направление и скорость ветра, видимость, явления погоды, количество и форма облачности, нижняя и верхняя граница облачности), а также ознакомиться с разнообразными материалами по авиационной метеорологии и подборкой полезных ссылок на эту тему.

Сайт Метеоцентр.Азия посвящён разработке технологий оптимизации авиаметеорологического обслуживания, включая проектирование и перспективное создание нескольких автоматизированных авиаметеорологических систем:
- система выпуска высокодетальных прогностических карт явлений погоды для нижнего воздушного пространства по России и ближнему зарубежью;
- система верификации прогнозов TAF (выпускаемых синоптиками официальных АМСГ РФ и ближнего зарубежья) и AUTOTAF (выпускаемых сайтом Метеоцентр.Азия) - выявление ошибок, онлайн-сопоставление с фактической погодой METAR, автоматическое внесение коррективов в прогнозы при резком отклонении фактической погоды от прогноза, подсчёт оправдываемости прогнозов по элементам и в целом;
- система обработки, анализа и отображения авиаметеорологической информации для применения провайдерами метеорологической информации.


Погода в Жердевке - сегодня

Время (UTC), дата Ветер
(°,м/с) 
Видим.   Явления Облачность Т
(°С)
Тd
(°С)
f(%) Тe
(°С)
Pmin
(гПа)
dP
(гПа)
Po
(мм)
O2
(г/м3)
Тmin Tmax R s Состояние
почвы
09 18.01.17 300 (СЗ) 4000 м  дымка{туман}  10/0 средняя 
[As trans]
-9.2 -10.3 92 -12  1036.7  1.2  763  319           
12 18.01.17 300 (СЗ) 4000 м  дымка{туман}  10/10 270 м 
[St]
-6.6 -7.8 91 -8  1036.1  -0.5  763  316           
15 18.01.17 330 (СЗ) 4000 м  дымка  10/10 330 м 
[St]
-5.5 -6.6 92 -5  1036.3  0.3  763  314    -4.5       
18 18.01.17 280 (З) 10 км    3/0 средняя 
[Ac trans]
-10.8 -12.1 90 -14  1037  0.3  763  321           
21 18.01.17 тихо ()   4000 м  дымка  4/0 верхняя 
[Ci fib]
-14.6 -16.6 85 -15  1037.3  763  326           
00 19.01.17 тихо ()   4000 м  дымка  8/0 средняя 
[Ac trans]
-14.3 -16.3 85 -14  1036.7  -0.6  763  326           
03 19.01.17 240 (ЮЗ) 4000 м  дымка  10/0 средняя 
[As trans]
-12 -13.3 90 -12  1035.4  -1  762  322  -15.4      33  равномерный
сухой снег
100% 
06 19.01.17 250 (З) 4000 м  дымка  9/0 средняя 
[Ac und]
-8.4 -9.4 92 -8  1034.6  -0.6  761  317           
09 19.01.17 260 (З) 10 км    3/0 средняя 
[Ac trans]
-7.7 -9.9 84 -11  1033.5  -0.9  761  316           
12 19.01.17 250 (З) 20000 м    3/0 средняя 
[Ac trans]
-7.9 -11 78 -12  1031.9  -1.6  759  316           
15 19.01.17 290 (З) 20000 м    8/0 средняя 
[Ac trans]
-13.5 -15.5 85 -17  1031.4  -1  759  323    -7.1       
18 19.01.17 260 (З) 5{10}  20000 м    10/10 360 м 
[St]
-11.2 -13.2 85 -16  1029.5  -1.7  757  319           
21 19.01.17 250 (З) 7-10{12}  10 км    10/10 330 м 
[St]
-10 -11.3 90 -16  1026.8  -2.5  756  317           
00 20.01.17 240 (ЮЗ) 7-10{12}  4000 м  слаб. снег  10/10 240 м 
[Frnb|Ns]
-9.9 -11.6 87 -16  1023.8  -2.9  753  316           
03 20.01.17 250 (З) 7-12{13}  10 км  позёмок{снег}  10/10 420 м 
[St]
-10.5 -12.5 85 -17  1021.3  -2.6  751  316  -15.2    0.3  33  равномерный
сухой снег
100% 
06 20.01.17 260 (З) 7-12{13}  10 км  позёмок{снег}  10/10 420 м 
[St]
-8.5 -10.8 83 -14  1019.3  -1.9  750  313           
09 20.01.17 260 (З) 6-10{13}  10 км  позёмок  10/10 400 м 
[St]
-7.1 -9.6 82 -12  1018.4  -0.6  750  311           
12 20.01.17 280 (З) 8-12{12}  10 км  позёмок  10/10 360 м 
[St]
-5.2 -6.9 88 -11  1016.6  -1.7  748  308           
15 20.01.17 290 (З) 6{12}  10 км    10/10 400 м 
[St]
-4.6 -6.2 89 -9  1016.9  0.3  749  307    -4.4  0.0     
18 20.01.17 280 (З) 6{10}  10 км    9/0 средняя 
[Ac trans]
-4 -5.9 87 -8  1016.8  0.1  749  307           
21 20.01.17 280 (З) 10 км    10/0 средняя 
[As op]
-3.4 -5.5 85 -7  1016.6  -0.2  748  306           
00 21.01.17 270 (З) 10 км    10/0 средняя 
[As op]
-3.7 -5.9 85 -7  1016.2  -0.4  748  306           
03 21.01.17 260 (З) 10 км    8/8 630 м 
[Sc]
-4 -6.2 85 -8  1014.9  -1.3  747  306  -4.6      28  равномерный
сухой снег
100% 
06 21.01.17 260 (З) 10 км    10/10 420 м 
[St]
-3.7 -5.2 89 -8  1013.7  -1.2  746  305           
09 21.01.17 260 (З) 5{10}  10 км  слаб. снег  10/10 400 м 
[Frnb|Ns]
-2.6 -4.5 87 -6  1011.6  -2  745  303           
Время (UTC), дата Ветер
(°,м/с) 
Видим.   Явления Облачность Т
(°С)
Тd
(°С)
f(%) Тe
(°С)
Pmin
(гПа)
dP
(гПа)
Po
(мм)
O2
(г/м3)
Тmin Tmax R s Состояние
почвы

Для получения пояснительной информации подведите курсор к названию столбца.

ПОГОДА в Жердевке - архив

Всё, что Вы хотите узнать о погоде в Жердевке - удобно и подробно!

Выберите нужную дату (начиная с 1 января 2015* года) и нажмите кнопку "Найти".
Будут отображены архивные сводки погоды по пункту Жердевка, начиная с указанной даты.


Отображать данные в формате CSV (для использования в таблицах Excel)


Внимание! Наш архив погоды предназначен исключительно для личного некоммерческого использования в познавательных целях. Если Вам необходимы официальные справки о состоянии погоды (для производственных, юридических, коммерческих и т.п. целей), обращайтесь в органы Росгидромета.

*Примечание: данная дата относится к архиву по метеостанциям СССР (Россия, СНГ, Балтия).
Архив по метеостанциям Зарубежной Европы и Азии (кроме Китая) хранится 10 дней, по другим регионам земного шара (Китай, Африка, Америка, Австралия, Океания) - 1 день.

Жердевка - район местоположения метеостанции


Название, широта, долгота, высота метеостанции:
Жердевка 51.8°ш. 41.5°д. 147 м над ур. моря [Российская Федерация]

Дополнительная информация

В oтличие oт бoльшинства пoгoдных сайтoв мы публикуем пoдрoбную метеoинфoрмацию в детальнoм прoфессиoнальнoм фoрмате.

Характеристики температуры и влажнoсти вoздуха измеряются на высoте 2 м в тени вдали oт зданий и деревьев.
Скoрoсть ветра измеряется на высoте 10 м (на урoвне рoста челoвека скoрoсть ветра ниже в 1.5-2 раза). Если метеoстанция нахoдится в гoрoде или в лесу, тo скoрoсть ветра занижена на 2-4 м/с пo сравнению с oткрытым местoм. Скoрoсть ветра над акватoриями крупных рек и oзёр, а также на вершинах хoлмoв на 2-5 м/с выше, чем в oбычных услoвиях.
Атмoсфернoе давление в разных тoчках местнoсти мoжет значительнo oтличаться oт давления на метеoстанции, в зависимoсти oт услoвий рельефа (при пoдъёме на 10 м давление пoнижается примернo на 1 мм рт.ст.).